Vertical_Velocity
-2 -2 -2 -1 -1 -1 -1 -1 -1 -1 -1 -1 -1 -1 -0 -0 -0 -0 -0 -0 -0 -0 -0 -0 -0 -0 -0 -0 0 1 1 1 0 -0 -0 0 0 0 1 0 -0 -0 -1 -1 -1 -1 -1 -1 -0 -1 -1 -1 -1 -1 -1 -1 -0 0 1 1 1 1 2 -1 -2 -2 1 1 1 0 -0 -3 -1 3 6 1 -1 -0 -0 -1 -1 -1 -0 1 6 8 2 -1 -1 -0 -1 -0 0 1 1 2 2 2 1 1 -0 -2 -2
-2 -2 -2 -2 -2 -1 -1 -1 -1 -1 -1 -1 -1 -1 -1 -1 -1 -1 -1 -1 -0 -0 -0 -0 -0 -0 -0 -0 0 1 1 1 1 1 1 1 1 1 0 0 0 0 -0 -0 -1 -1 -1 -1 -0 -0 -1 -0 -0 -1 -1 -1 -1 -0 0 1 1 2 2 -1 -2 -1 1 1 1 1 0 -1 -2 1 7 4 0 -1 -1 -1 -1 -1 -3 -2 8 15 7 -0 -2 -1 -1 -0 -0 1 1 1 2 2 1 2 0 -2 -3
-2 -2 -2 -2 -2 -2 -2 -2 -2 -1 -1 -1 -1 -1 -2 -1 -1 -1 -1 -1 -1 -1 -1 -1 -1 -1 -0 -0 -0 0 1 0 0 1 1 1 1 1 1 1 1 0 0 -0 -0 -0 -0 -0 -0 -0 -0 -0 -0 -1 -1 -1 -1 -0 0 0 1 1 1 -1 -1 -1 0 1 1 1 1 -0 -2 -2 3 7 3 -1 -2 -2 -1 -0 1 -3 4 12 13 4 -0 -1 -1 -1 -0 0 1 1 2 2 1 2 1 -1 -4
-1 -1 -1 -1 -2 -2 -2 -2 -2 -2 -2 -2 -1 -1 -1 -1 -1 -1 -1 -1 -2 -2 -1 -1 -1 -1 -1 -1 -0 0 1 0 0 0 1 1 1 1 1 1 0 0 0 0 0 0 0 0 0 0 0 0 -0 -1 -1 -1 -1 -1 -1 -0 0 1 1 -1 -1 -1 0 0 0 1 1 0 -1 -2 -3 3 4 1 -2 -3 -3 -1 1 -2 1 6 15 8 4 1 -1 -1 -0 0 1 1 2 2 2 2 2 -0 -3
-1 -1 -1 -1 -1 -1 -2 -2 -2 -2 -2 -2 -2 -1 -1 -1 -2 -2 -2 -2 -2 -2 -2 -2 -2 -1 -1 -1 -1 -0 -0 -0 -0 -0 -0 0 0 1 1 1 0 0 0 0 1 1 1 0 0 0 0 0 -0 -0 -1 -1 -1 -1 -1 -1 -0 0 -0 -1 -1 -1 0 0 1 1 1 1 1 -1 -3 -3 -1 2 2 -0 -2 -2 0 -1 -2 1 9 8 6 3 -1 -1 -1 -0 0 1 2 2 2 2 2 1 -2
-1 -1 -1 -1 -1 -1 -1 -2 -2 -2 -2 -2 -2 -2 -1 -2 -2 -2 -2 -2 -2 -1 -1 -2 -1 -1 -1 -1 -2 -1 -1 -1 -1 -1 -1 -0 -0 0 1 0 1 1 1 0 1 1 0 0 0 0 0 0 -0 -0 -1 -1 -1 -1 -1 -1 -0 -1 -1 -1 -1 -0 1 1 1 1 1 2 1 1 -1 -3 -3 -2 1 2 2 2 1 -1 -3 -3 2 5 6 5 4 -0 -2 -1 -0 1 2 2 2 3 2 1 -0
-1 -1 -1 -1 -1 -1 -1 -1 -2 -2 -2 -2 -2 -2 -2 -2 -2 -1 -2 -2 -2 -2 -1 -1 -1 -1 -1 -2 -2 -2 -2 -2 -2 -1 -1 -1 -0 -0 0 1 1 1 1 0 0 0 0 0 0 0 0 -0 -0 -0 -0 -0 -1 -1 -1 -1 -1 -1 -2 -1 -0 0 1 1 2 2 1 1 1 1 0 -0 -1 -2 -3 -2 1 3 5 1 -2 -3 -1 3 4 4 4 2 -1 -3 -1 0 1 2 2 3 3 2 1
-1 -1 -1 -1 -1 -1 -1 -1 -1 -1 -1 -2 -2 -2 -2 -2 -2 -2 -2 -2 -2 -2 -1 -1 -1 -1 -2 -2 -2 -2 -2 -2 -2 -2 -1 -1 -1 -0 0 0 0 0 0 -0 -0 -0 0 0 0 0 -0 -0 -0 -0 0 0 -0 -0 -1 -1 -1 -1 -1 -0 0 1 1 1 1 1 1 1 1 1 0 1 0 -0 -1 -2 -2 -1 2 4 2 -0 -2 -0 2 2 -1 3 3 1 -2 -1 0 1 2 3 3 3 2
-1 -1 -1 -1 -1 -1 -1 -1 -1 -1 -1 -2 -2 -2 -2 -2 -2 -2 -2 -2 -2 -2 -2 -1 -1 -2 -2 -2 -2 -2 -1 -1 -1 -1 -1 -1 -1 -1 -0 -0 0 -0 -0 -1 -1 -0 -0 -0 -0 -0 -0 -0 -0 -0 0 0 0 -0 -1 -1 -1 -1 -1 -0 0 0 1 1 1 1 1 1 1 1 0 0 0 1 1 0 -1 -3 -3 1 3 3 0 -1 0 1 2 2 4 4 -1 -1 -1 -0 1 2 3 4 3
-1 -1 -1 -1 -1 -1 -1 -1 -1 -1 -1 -1 -1 -1 -1 -2 -2 -2 -2 -1 -2 -2 -2 -2 -2 -2 -2 -2 -1 -1 -1 -1 -1 -1 -1 -1 -1 -1 -0 -0 -0 -0 -0 -1 -1 -1 -1 -1 -0 -0 -0 -0 -0 -0 -0 0 -0 -0 -1 -1 -1 -1 -0 -0 0 0 0 0 0 0 0 1 1 0 -0 -0 0 1 2 1 -1 -2 -4 -2 1 3 2 0 -0 1 4 1 2 4 3 -0 -1 -1 -0 1 3 3 3
-1 -1 -1 -1 -1 -1 -1 -1 -1 -1 -1 -1 -1 -1 -1 -1 -1 -2 -1 -1 -1 -2 -2 -2 -2 -2 -2 -2 -1 -1 -1 -1 -1 -1 -1 -1 -1 -1 -1 -0 -0 -0 -0 -1 -1 -1 -1 -1 -1 -1 -1 -0 -0 -0 -0 -0 -0 -0 -1 -1 -1 -1 -0 -0 -0 -0 -0 -0 -0 -0 -0 0 0 -0 -0 -1 -0 0 0 -0 -1 -2 -3 -3 -1 1 3 1 -1 -0 3 2 1 2 6 1 -1 -1 -1 -0 1 3 3
-1 -0 -0 -0 -0 -0 -0 -1 -1 -1 -1 -1 -1 -1 -1 -1 -1 -1 -1 -2 -2 -2 -2 -2 -2 -2 -2 -2 -2 -1 -1 -1 -1 -1 -1 -1 -1 -1 -1 -0 -0 0 0 -1 -1 -1 -1 -1 -1 -1 -1 -1 -1 -1 -0 -0 -0 -0 0 -0 -0 -0 -0 -0 -0 -0 -0 -0 -0 -0 -0 0 0 0 -0 -1 -1 -1 -1 -1 -1 -1 -2 -2 -2 -0 3 1 -1 -1 1 2 1 1 5 2 -0 -1 -1 -1 0 2 3
-0 -0 0 -0 -0 -0 -0 -0 -0 -1 -1 -1 -1 -1 -1 -1 -1 -1 -1 -2 -2 -2 -2 -2 -1 -1 -1 -2 -2 -2 -1 -1 -1 -1 -1 -1 -1 -1 -1 -0 -0 0 1 0 -1 -1 -1 -1 -1 -1 -2 -1 -1 -1 -1 -1 -0 -0 0 0 0 0 0 0 -0 -0 -1 -1 -1 -0 -0 0 0 0 0 -0 -1 -1 -1 -1 -1 -1 -2 -1 -1 -1 0 1 0 -1 -1 1 1 1 1 2 1 -1 -1 -1 -0 1 2
-0 0 0 0 0 0 -0 -0 -0 -0 -1 -1 -1 -1 -1 -1 -1 -1 -1 -1 -1 -1 -1 -1 -1 -1 -1 -1 -1 -1 -1 -1 -1 -1 -1 -1 -1 -1 -1 -1 -0 0 1 1 0 -1 -1 -1 -2 -2 -2 -2 -2 -1 -1 -1 -1 -0 -0 -0 0 0 0 0 0 -0 -1 -1 -1 -1 -0 0 0 1 0 -0 -0 -1 -1 -0 -1 -1 -1 -0 -0 -1 -2 1 1 0 -2 -0 1 1 -0 4 4 1 -1 -1 -1 -0 1
0 0 0 0 0 0 0 0 -0 -0 -0 -0 -0 -0 -1 -1 -1 -1 -1 -1 -1 -1 -1 -1 -1 -1 -1 -1 -1 -1 -1 -1 -1 -1 -1 -1 -1 -1 -1 -1 -0 0 1 2 1 -0 -1 -1 -2 -1 -1 -1 -2 -2 -1 -1 -1 -1 -0 -0 -0 0 1 1 0 -0 -1 -1 -1 -1 -1 -0 0 1 1 1 0 0 0 0 -0 -0 -0 0 -0 -1 -2 -0 1 1 -1 -2 -1 0 1 8 8 5 0 -0 -0 -1 -0
0 0 -0 0 0 0 0 0 0 0 -0 -0 -0 -0 -0 -0 -0 -1 -1 -1 -1 -1 -1 -1 -1 -1 -1 -1 -1 -1 -1 -1 -1 -1 -1 -1 -1 -1 -1 -1 -0 -0 1 2 2 1 -0 -1 -1 -1 -1 -1 -1 -1 -1 -1 -1 -1 -1 -1 -0 -0 0 1 1 0 -0 -0 -1 -1 -1 -1 -0 0 1 1 1 1 1 1 0 0 1 0 -0 -2 -2 -1 0 1 0 -1 -2 -2 -0 7 10 9 3 3 1 -1 -1
0 0 -0 0 0 0 0 0 0 0 0 0 0 -0 -0 -0 -0 -0 -0 -1 -1 -1 -1 -1 -1 -1 -1 -1 -1 -0 -0 -0 -0 -0 -0 -0 -1 -1 -0 -0 -0 -0 0 1 2 2 1 0 -0 -1 -1 -1 -1 -1 -1 -1 -1 -1 -1 -1 -1 -0 0 1 1 1 1 -0 -0 -1 -1 -0 -0 -0 0 1 1 1 1 1 1 1 1 1 -0 -1 -2 -2 -0 1 1 -1 -2 -2 -2 2 7 8 3 4 2 0 -1
0 0 0 0 0 0 0 0 0 0 0 0 0 0 0 -0 -0 -0 -0 -0 -0 -0 -0 -1 -1 -1 -1 -0 -0 -0 -0 -0 0 -0 -0 -0 -0 -0 -0 -0 -0 -0 -0 0 1 2 2 1 0 -0 -1 -1 -1 -1 -1 -1 -1 -1 -1 -1 -1 -0 -0 0 1 1 1 0 0 -0 -1 -0 -0 -0 0 1 1 1 1 1 1 1 1 1 -0 -1 -1 -1 -1 -0 0 -0 -1 -2 -2 -1 2 6 5 2 2 3 -2
0 0 0 0 0 0 0 1 1 1 1 1 0 0 0 0 0 0 -0 -0 -0 -0 -0 -1 -1 -1 -1 -0 -0 -0 -0 -0 -0 -0 -0 -0 -0 -0 -0 -0 -0 -0 -0 -0 1 1 2 1 0 -0 -1 -1 -1 -1 -1 -1 -1 -1 -1 -1 -1 -1 -0 -0 0 1 1 1 0 -0 -0 -0 -0 -0 0 1 1 1 1 1 1 1 1 1 0 -0 -1 -1 -1 -1 -0 -0 -1 -1 -1 -2 -0 2 5 2 1 2 -1
1 1 1 1 1 1 1 1 1 1 1 1 1 1 1 1 0 0 0 0 -0 -0 -1 -1 -0 -0 -0 -0 -0 -0 -1 -1 -1 -0 -1 -1 -1 -0 -0 -1 -1 -1 -1 -0 0 1 1 1 0 -0 -0 -0 -0 -0 -0 -1 -1 -1 -1 -1 -1 -1 -1 -0 -0 0 1 1 1 0 -0 -1 -1 -0 -0 0 1 1 1 1 1 1 1 1 1 0 -1 -1 -1 -1 -0 -0 -1 -1 -0 -0 -0 -0 2 3 2 0 -1
1 1 1 1 1 1 1 1 1 1 1 1 1 1 1 1 1 1 0 0 -0 -0 -0 -0 -0 -0 -0 -0 -0 -1 -1 -1 -0 -0 -0 -1 -1 -1 -1 -1 -1 -1 -0 -0 0 1 1 1 1 0 0 0 0 0 0 -0 -0 -1 -1 -1 -1 -1 -1 -1 -0 -0 0 1 1 1 0 -0 -1 -1 -1 -0 0 1 1 1 1 1 1 1 1 1 0 0 -0 -0 0 0 -0 -0 0 1 1 -0 -1 2 3 2 -0
1 1 1 1 1 1 1 1 1 1 1 1 1 1 1 1 1 1 0 0 -0 -0 -0 -0 -0 -0 -0 -1 -1 -1 -1 -1 -0 -0 -0 -0 -0 -1 -1 -1 -1 -0 -0 0 0 0 1 1 1 1 1 1 0 0 0 0 0 -0 -0 -0 -1 -1 -1 -1 -1 -1 -0 0 1 1 1 0 -0 -1 -1 -1 -0 0 1 1 1 0 1 1 1 1 1 1 0 0 0 0 -0 -0 -0 1 1 1 0 1 3 4 2
0 0 1 1 1 1 1 1 1 1 0 1 1 1 1 1 1 0 0 -0 -0 -0 -0 -0 -0 -1 -1 -1 -1 -1 -1 -1 -1 -0 -0 -0 -0 -0 -1 -1 -0 -0 -0 0 0 0 0 1 1 1 1 1 1 0 0 0 0 0 0 -0 -1 -1 -1 -1 -1 -1 -1 -0 -0 0 1 1 0 -0 -0 -0 -0 0 0 1 1 1 0 1 1 1 1 1 1 0 -0 -0 -1 -1 -1 -0 0 1 1 2 3 3 5
0 0 0 0 0 0 0 0 0 0 0 0 0 0 0 0 0 0 -0 -0 -0 -0 -0 -0 -1 -1 -1 -1 -1 -1 -1 -1 -0 -0 -0 -0 -0 -0 -0 -0 -1 -0 -0 -0 -0 -0 -0 -0 0 0 1 1 0 0 0 0 0 0 -0 -0 -1 -1 -1 -1 -1 -1 -1 -1 -0 -0 0 0 1 0 -0 -1 -1 -0 0 0 0 0 0 0 0 1 1 1 0 0 -0 -1 -2 -2 -3 -1 -0 0 1 3 3 3 5
-0 -0 -0 -0 -0 -1 -1 -0 -0 -0 -0 -0 -0 -0 -1 -0 -0 -0 -0 -0 -0 -1 -1 -1 -1 -1 -0 -0 -0 -0 -0 -0 -0 -0 0 -0 -0 -0 -0 -0 -0 -0 -0 -0 -0 -0 -0 -1 -1 -0 -0 -0 0 0 1 1 1 0 0 0 -0 -0 -0 -1 -1 -1 -1 -1 -1 -1 -0 0 1 0 -0 -1 -1 -1 -0 -0 -0 -0 0 -0 -1 -1 -0 -0 -0 -0 -0 -1 -2 -3 -3 -2 -1 -0 0 2 3 3 3
-0 -0 -1 -1 -1 -1 -1 -1 -1 -1 -1 -1 -1 -1 -1 -0 -0 -0 -0 -0 -1 -1 -1 -0 -0 -0 -0 -0 0 -0 -0 -0 0 0 0 0 0 0 0 -0 -0 -0 -0 -0 -0 -0 -0 -1 -1 -1 -1 -1 -0 0 1 1 1 0 0 1 1 1 0 -0 -0 -1 -1 -1 -1 -1 -1 -0 0 0 -0 -0 -1 -1 -1 -1 -0 -0 -0 -0 -1 -1 -1 -1 -1 -0 -0 -1 -2 -3 -3 -3 -2 -1 0 1 3 3 2
-1 -1 -1 -1 -1 -1 -1 -1 -1 -1 -1 -1 -1 -1 -1 -0 -0 -0 -0 -1 -1 -1 -0 -0 0 0 0 0 0 0 0 0 0 0 0 0 0 0 0 -0 -0 -0 -0 -0 -0 -0 -1 -1 -1 -1 -1 -1 -1 -0 -0 -0 -0 -0 0 1 1 1 1 1 1 0 -0 -1 -1 -1 -1 -1 -0 0 0 0 -0 -1 -1 -1 -1 -0 -0 0 0 -0 -1 -1 -1 -0 -0 -1 -2 -2 -2 -2 -1 -1 0 1 2 2 2
-1 -1 -1 -2 -2 -1 -1 -1 -1 -1 -1 -1 -1 -1 -1 -1 -1 -1 -1 -1 -1 -1 -0 -0 -0 -0 0 1 1 1 1 0 0 0 0 0 0 0 0 0 -0 -0 -0 0 -0 -0 -1 -0 -0 -0 -1 -1 -1 -1 -1 -1 -1 -1 -1 -1 -0 -0 0 1 1 1 1 0 -0 -1 -1 -1 -1 -0 0 0 0 -0 -1 -1 -1 -0 0 1 1 1 0 0 -0 -0 -0 -0 -1 -1 -2 -2 -1 -0 0 1 1 1 2
-1 -1 -2 -2 -2 -2 -1 -2 -2 -2 -2 -1 -1 -1 -2 -1 -1 -1 -1 -1 -1 -1 -1 -1 -0 -0 0 1 1 1 1 1 0 0 0 0 0 0 0 0 0 -0 -0 -0 -0 -1 -1 -1 -0 -0 -1 -1 -1 -1 -2 -2 -2 -2 -2 -2 -2 -1 -1 -0 0 1 1 1 1 0 -0 -1 -1 -1 -1 -0 0 1 0 -0 -1 -1 0 0 1 1 1 1 1 1 1 0 -0 -1 -2 -1 -1 -1 -1 -0 0 1 1
-1 -2 -2 -2 -2 -2 -2 -2 -2 -2 -2 -1 -2 -2 -2 -2 -2 -1 -2 -2 -1 -1 -0 -0 -0 0 0 0 1 1 1 1 1 0 0 0 0 0 0 0 0 -0 -0 -1 -1 -1 -1 -1 -0 -0 -1 -1 -1 -2 -2 -2 -2 -2 -2 -2 -1 -1 -1 -1 -1 -0 0 0 1 1 0 -0 -1 -1 -2 -1 -1 -1 -0 1 0 -0 -0 -1 -0 0 1 1 1 0 0 0 -0 -1 -1 -1 -1 -1 -1 -1 -0 1 1
-2 -2 -2 -2 -2 -2 -2 -2 -2 -2 -2 -2 -2 -2 -2 -2 -2 -2 -2 -2 -2 -1 -1 -1 -1 -0 -0 -0 -0 -0 0 1 1 1 0 0 0 0 0 0 0 -0 -1 -1 -1 -1 -1 -1 -1 -1 -1 -2 -2 -1 -1 -1 -1 -1 -0 -0 -0 -1 -1 -1 -1 -1 -1 -1 -0 -0 0 0 -0 -1 -2 -1 -1 -1 -1 -0 0 0 0 -0 -1 -0 0 0 -0 -0 -0 -0 -0 -0 -1 -1 -1 -1 -1 -1 -0 1 2
-2 -2 -2 -1 -2 -2 -2 -2 -2 -2 -2 -2 -2 -2 -2 -2 -2 -2 -3 -3 -2 -2 -2 -2 -2 -1 -1 -1 -1 -1 -0 0 1 1 0 0 0 0 0 0 0 -0 -1 -1 -1 -1 -1 -1 -1 -1 -1 -1 -1 -1 -1 -0 0 1 1 1 1 0 0 -0 -0 -1 -1 -1 -1 -0 -0 -0 -0 -1 -1 -1 -1 -1 -3 -2 -1 -0 1 -0 -1 -1 -0 -0 -0 -0 -0 -0 -0 -0 0 -0 -1 -1 -1 -1 -1 -0 0
-2 -2 -2 -2 -2 -2 -2 -2 -2 -2 -2 -2 -2 -2 -2 -2 -2 -3 -3 -3 -2 -2 -2 -2 -2 -2 -1 -1 -1 -1 -0 -0 0 0 0 -0 -0 -0 0 0 0 0 -0 -1 -1 -1 -1 -1 -1 -0 -0 -0 -0 -0 -0 0 1 1 1 1 1 1 1 1 0 -0 -0 -0 -0 -0 -0 -1 -0 -0 -0 -0 -1 -2 -3 -2 -2 -2 -2 -1 -0 -0 -1 -1 -1 -0 -0 -0 -0 -0 0 -0 -1 -2 -2 -1 -1 -1 -1
-2 -2 -2 -2 -2 -2 -2 -3 -2 -2 -1 -2 -2 -3 -3 -2 -3 -3 -3 -2 -2 -2 -2 -2 -2 -2 -1 -1 -1 -1 -1 -0 -0 -0 -1 -0 -0 -0 0 0 0 0 -0 -1 -1 -1 -2 -1 -0 0 0 0 -0 -0 0 0 1 1 1 1 1 1 1 1 1 1 0 1 1 0 -0 -1 -1 -1 -0 -0 -1 -1 -1 -1 -1 -2 -3 -2 -1 -1 -1 -1 -0 -0 -0 -0 -0 -0 0 -0 -1 -1 -1 -1 -1 -1 -1
-2 -2 -3 -2 -2 -2 -3 -3 -2 -2 -1 -2 -3 -3 -3 -2 -2 -2 -2 -1 -1 -2 -2 -2 -2 -1 -1 -1 -1 -1 -1 -1 -0 -1 -1 -1 -0 -0 -0 0 0 0 -0 -0 -1 -1 -2 -1 0 1 0 -0 -0 -0 -0 -0 -0 -0 0 1 1 1 1 1 1 1 1 1 1 0 0 -0 -0 -0 -1 -1 -1 -1 -1 -1 -1 -1 -1 -1 -2 -2 -2 -2 -1 -1 -1 -0 -0 -0 -0 -0 -0 -1 -1 -1 -0 -1 -1
-2 -2 -2 -2 -2 -2 -3 -2 -2 -1 -2 -3 -3 -3 -2 -2 -2 -2 -1 -1 -1 -2 -2 -1 -1 -1 -2 -2 -1 -1 -1 -1 -1 -1 -1 -1 -0 -0 -0 -0 -0 -0 -1 -1 -1 -1 -2 -0 0 0 -0 -0 -1 -1 -1 -1 -1 -1 -0 -0 -0 -0 0 0 0 1 1 1 0 0 0 -0 -0 -0 -1 -1 -1 -1 -1 -1 -1 -1 -1 -1 -1 -1 -2 -2 -2 -1 -1 -0 -0 -1 -1 -0 -0 -0 -0 -0 -0 -0 -1
-2 -2 -2 -2 -2 -2 -2 -1 -1 -1 -2 -3 -3 -3 -2 -2 -3 -2 -2 -1 -2 -3 -2 -2 -2 -2 -2 -2 -2 -2 -2 -1 -1 -1 -1 -1 -0 0 0 -0 -1 -1 -2 -2 -1 -1 -1 -0 0 0 -0 -1 -1 -2 -2 -2 -2 -1 -1 -1 -1 -1 -1 -1 -0 0 0 0 -0 -0 -0 -0 -1 -1 -0 -0 -0 -0 -1 -1 -2 -2 -2 -1 -1 -1 -1 -1 -1 -1 -0 -1 -1 -1 -1 -1 -1 -1 -0 -0 -0 -0 -0
-2 -2 -2 -2 -2 -2 -2 -1 -1 -1 -2 -3 -3 -3 -3 -3 -3 -2 -2 -2 -2 -2 -2 -2 -2 -2 -3 -3 -3 -3 -2 -2 -2 -2 -2 -1 -0 -0 0 -0 -2 -3 -4 -3 -2 -1 -1 0 0 -0 -1 -1 -2 -2 -2 -2 -2 -1 -1 -1 -1 -2 -2 -1 -1 -1 -1 -1 -1 -1 -1 -1 -1 -1 -1 0 0 -0 -1 -1 -1 -2 -2 -2 -2 -1 -1 -1 -1 -1 -1 -1 -1 -1 -1 -1 -1 -1 -1 -0 0 1 1
-2 -2 -2 -1 -2 -2 -1 -0 -0 -1 -2 -3 -3 -3 -3 -3 -2 -2 -2 -2 -2 -2 -2 -2 -2 -2 -3 -3 -3 -3 -2 -2 -2 -2 -2 -1 -1 -0 -0 -1 -3 -5 -5 -3 -2 -1 -0 0 -0 -1 -1 -2 -2 -1 -1 -1 -1 -1 -1 -1 -2 -2 -2 -2 -2 -2 -2 -2 -1 -1 -1 -1 -1 -1 -1 -0 -0 -0 -0 -1 -1 -1 -2 -2 -2 -2 -2 -1 -1 -1 -1 -1 -1 -1 -0 -1 -1 -1 -1 -1 -0 1 2
-2 -2 -1 -1 -1 -1 -0 0 -0 -1 -3 -3 -3 -3 -2 -2 -2 -2 -2 -3 -3 -3 -2 -2 -2 -3 -4 -4 -3 -3 -2 -2 -2 -2 -2 -2 -1 -1 -1 -3 -4 -5 -4 -2 -0 0 1 0 -1 -2 -3 -1 -0 -0 -1 -1 -1 -1 -0 -1 -1 -2 -2 -2 -2 -2 -2 -2 -2 -1 -1 -0 -0 -1 -1 -1 -1 -0 -0 -0 -1 -1 -1 -1 -2 -2 -2 -2 -2 -1 -1 -1 -1 -1 -1 -1 -1 -1 -1 -1 -1 -0 1
-1 -1 -1 -1 -1 -1 -0 0 -0 -1 -3 -3 -3 -2 -2 -3 -3 -3 -3 -3 -3 -3 -2 -2 -4 -5 -4 -3 -2 -2 -2 -2 -2 -2 -2 -2 -2 -2 -2 -4 -5 -5 -3 -0 1 1 1 0 -1 -3 -3 -1 0 1 -0 -1 -1 -0 -0 -1 -1 -2 -2 -2 -2 -3 -3 -2 -2 -1 -1 -0 -0 -0 -0 -1 -1 -1 -0 -0 -0 -0 -0 -1 -1 -1 -2 -2 -2 -2 -1 -1 -1 -1 -1 -1 -1 -1 -1 -1 -1 -1 -0
-1 -1 -1 -1 -1 -0 -0 -0 -1 -2 -3 -3 -3 -2 -3 -3 -3 -3 -3 -3 -3 -3 -2 -3 -4 -5 -4 -2 -1 -1 -1 -1 -1 -1 -2 -2 -2 -2 -3 -4 -5 -4 -2 1 1 0 1 0 -1 -2 -3 -1 1 1 0 -0 -1 -1 -1 -1 -1 -2 -2 -2 -2 -3 -3 -3 -2 -2 -2 -1 -1 -0 -1 -1 -1 -1 -1 -0 -0 -0 -0 -0 -0 -0 -1 -1 -2 -2 -2 -2 -1 -1 -1 -1 -0 -0 -0 -1 -1 -1 -1
-1 -1 -1 -1 -1 -1 -0 -0 -1 -2 -3 -3 -2 -2 -3 -3 -3 -3 -3 -3 -3 -3 -3 -3 -4 -5 -4 -2 -0 -0 -1 -1 -1 -1 -2 -2 -2 -2 -3 -4 -4 -4 -1 0 1 0 0 0 -0 -1 -2 -1 1 1 0 -0 -1 -1 -1 -1 -1 -2 -2 -2 -2 -3 -3 -3 -3 -3 -3 -3 -2 -1 -1 -1 -2 -2 -1 -0 -0 0 0 -0 -0 -0 -0 -0 -0 -1 -2 -2 -1 -1 -1 -0 -0 -0 0 -0 -0 -1 -1
-1 -1 -1 -1 -1 -1 -1 -1 -1 -2 -3 -3 -2 -2 -3 -3 -3 -2 -2 -3 -3 -4 -4 -4 -5 -5 -5 -3 -2 -2 -2 -2 -1 -1 -1 -2 -2 -2 -2 -4 -4 -3 -1 1 1 1 1 0 -0 -0 -1 -1 -0 0 -1 -1 -1 -1 -0 -1 -1 -2 -2 -2 -2 -2 -2 -3 -3 -3 -3 -3 -3 -2 -1 -1 -2 -2 -3 -1 0 0 -1 -1 -1 -0 -0 1 1 1 0 -0 -1 -1 -1 -1 -0 -0 0 1 1 1 0
-1 -1 -1 -1 -1 -1 -1 -1 -2 -2 -3 -2 -2 -2 -2 -2 -2 -2 -2 -2 -3 -3 -4 -4 -5 -5 -5 -3 -2 -2 -2 -1 -1 -1 -2 -2 -2 -2 -2 -3 -2 -1 0 1 2 2 1 0 -0 -1 -2 -2 -2 -1 -1 -0 -0 0 0 -0 -1 -2 -1 -1 -1 -1 -2 -3 -3 -3 -3 -3 -3 -3 -2 -1 -2 -3 -4 -1 1 1 -1 -1 -1 -1 -0 0 1 1 1 1 0 -0 -1 -1 -1 -0 0 1 1 1 1
-1 -1 -1 -1 -1 -1 -1 -1 -2 -2 -2 -2 -1 -1 -1 -2 -2 -2 -2 -2 -2 -3 -4 -4 -4 -4 -4 -2 -1 -1 -0 -0 -1 -2 -2 -2 -3 -3 -2 -1 -0 0 -0 1 2 3 1 -0 -1 -2 -2 -2 -1 -1 -1 0 0 0 -1 -1 -1 -1 -1 -1 -1 -1 -2 -3 -4 -4 -3 -3 -3 -3 -2 -1 -2 -3 -5 -1 3 3 -2 -2 -2 -1 -1 -1 -0 -0 -0 -0 0 0 0 -0 -1 -1 -1 -0 0 1 1
-1 -1 -1 -1 -1 -2 -2 -2 -2 -2 -2 -1 -1 -1 -2 -2 -2 -3 -3 -3 -3 -3 -4 -4 -4 -4 -3 -1 -1 -1 -0 -0 -1 -2 -2 -3 -3 -4 -3 -0 0 0 -1 0 2 3 1 -1 -2 -3 -2 -1 -1 -1 -0 1 0 -1 -1 -1 -1 -1 -1 -1 -1 -1 -2 -2 -3 -3 -4 -3 -3 -3 -2 -2 -1 -2 -4 -3 1 3 -2 -3 -3 -2 -2 -2 -2 -2 -2 -1 -1 -0 0 0 -0 -1 -2 -1 -1 -1 1
-1 -1 -2 -1 -2 -2 -2 -2 -2 -2 -2 -2 -2 -2 -3 -3 -3 -3 -3 -3 -3 -3 -3 -3 -4 -4 -3 -3 -3 -2 -2 -2 -2 -1 1 -1 -3 -4 -4 -2 -1 -0 -1 -0 2 3 1 -1 -3 -3 -2 -2 -1 -1 0 1 -0 -1 -1 -0 -1 -2 -2 -2 -1 -1 -1 -1 -2 -3 -3 -3 -4 -3 -3 -2 -1 -1 -3 -4 -2 0 -0 -3 -3 -3 -3 -3 -2 -2 -2 -1 -1 -1 -0 -0 -0 -1 -1 -2 -3 -2 -1
-1 -2 -2 -2 -2 -2 -2 -2 -2 -2 -2 -2 -3 -3 -3 -3 -3 -3 -3 -3 -3 -3 -3 -3 -4 -4 -5 -5 -5 -5 -4 -3 -1 1 3 -1 -3 -4 -4 -4 -3 -2 -2 -1 1 2 1 -1 -3 -3 -2 -2 -1 -1 0 0 -0 -0 -0 -1 -2 -2 -2 -2 -1 -0 0 -1 -2 -3 -3 -3 -4 -4 -4 -3 -2 -1 -2 -4 -4 -2 2 1 -0 -1 -1 -0 1 1 0 -0 0 1 1 0 -1 -1 -2 -2 -3 -4 -3
-1 -2 -2 -2 -2 -2 -2 -2 -2 -2 -2 -3 -3 -3 -2 -2 -2 -2 -2 -2 -2 -2 -3 -4 -4 -4 -5 -6 -6 -5 -5 -3 -1 -1 -4 -8 -9 -8 -6 -4 -2 -0 -1 -0 1 2 2 -1 -3 -3 -2 -1 -1 -1 -0 -0 -0 -0 -1 -1 -2 -2 -3 -2 -1 -0 0 -0 -1 -2 -3 -3 -4 -4 -4 -4 -3 -2 -1 -2 -4 -3 1 4 5 4 4 6 6 5 2 2 2 3 4 4 2 1 -1 -1 -2 -4 -5
-1 -2 -2 -2 -2 -2 -2 -2 -2 -2 -2 -3 -3 -3 -2 -2 -2 -2 -2 -2 -2 -3 -3 -4 -4 -4 -4 -5 -4 -4 -4 -3 -4 -7 -12 -10 -8 -7 -5 -3 -3 -2 1 1 2 2 3 1 -1 -2 -1 -0 -1 -1 -0 0 0 -0 -1 -1 -2 -3 -3 -2 -2 -1 -0 0 -1 -2 -2 -2 -3 -3 -4 -3 -2 -2 -1 -1 -2 -3 -2 2 4 4 4 5 5 3 1 2 2 3 4 5 6 6 5 5 3 0 -4
-2 -2 -2 -2 -2 -2 -2 -2 -2 -2 -2 -3 -3 -2 -2 -2 -2 -2 -3 -3 -3 -3 -4 -4 -4 -4 -4 -3 -3 -3 -3 -4 -5 -7 -7 -5 -3 -2 -1 -5 -9 -11 -11 -7 -2 2 2 -0 -2 -2 -2 -1 -1 -2 -1 -0 -0 -0 -0 -1 -2 -2 -3 -2 -1 -0 0 -0 -1 -2 -2 -2 -2 -2 -2 -2 -2 -1 -0 -0 -1 -2 -4 -2 -2 -2 -1 0 -0 -1 -1 -0 -0 0 -0 -0 1 3 6 8 9 7 4
-2 -2 -2 -2 -2 -2 -2 -2 -2 -2 -2 -2 -2 -2 -2 -2 -2 -3 -3 -3 -3 -3 -4 -3 -3 -2 -3 -3 -3 -3 -3 -4 -4 -5 -5 -3 -3 -5 -7 -11 -9 -6 -5 -9 -11 -11 -10 -8 -7 -6 -2 -1 -1 -1 -0 -0 -0 0 -0 -1 -1 -1 -2 -1 -0 0 -1 -2 -2 -2 -2 -1 -0 0 0 -1 -1 -1 0 1 1 1 -0 -3 -4 -5 -4 -3 -3 -2 -1 -1 -1 -2 -2 -3 -4 -4 -3 0 3 4 5
-2 -2 -2 -2 -2 -2 -2 -2 -2 -2 -2 -2 -2 -2 -2 -2 -2 -3 -3 -3 -3 -3 -3 -3 -2 -3 -3 -4 -4 -4 -3 -4 -4 -4 -5 -3 -5 -9 -11 -8 -3 -0 -0 -3 -9 -15 -18 -11 -7 -3 0 1 2 1 0 0 1 1 0 0 -0 -1 -2 -1 -1 -1 -1 -2 -2 -2 -2 -1 1 2 1 0 -1 -1 -0 1 2 3 3 1 -0 -2 -3 -3 -2 -1 -2 -2 -1 -1 -1 -1 -0 -1 -2 -2 -1 1 4
-2 -2 -2 -2 -2 -2 -2 -2 -2 -2 -2 -2 -2 -2 -2 -2 -3 -3 -3 -3 -3 -3 -3 -3 -3 -4 -4 -4 -4 -3 -2 -3 -3 -4 -4 -4 -5 -6 -4 -4 -5 -5 -5 -9 -7 -4 -7 -8 -4 -0 1 -1 -1 -2 -2 -1 -0 0 0 0 -0 -1 -3 -3 -2 -2 -1 -1 -1 -1 -1 -0 1 2 1 1 0 -0 -1 -0 0 1 2 2 2 2 -0 -1 -1 -1 -2 -2 -2 -1 -2 0 2 3 3 2 1 1 3
-2 -2 -2 -2 -2 -2 -2 -2 -2 -2 -2 -2 -2 -2 -2 -3 -3 -3 -3 -2 -2 -3 -3 -3 -4 -4 -4 -4 -3 -2 -1 -2 -3 -3 -4 -4 -5 -5 -4 -4 -4 -6 -8 -8 -5 -2 -1 -3 -6 -7 -3 -3 -4 -5 -3 -1 0 0 0 0 -0 -1 -2 -2 -2 -1 -0 -0 -0 -0 -0 0 1 1 2 1 1 0 -0 -1 -2 -2 -1 -0 1 2 2 -0 -0 -0 -2 -3 -3 -3 -2 -1 1 3 4 2 1 0 0
-2 -2 -2 -2 -2 -2 -2 -2 -2 -2 -2 -2 -2 -2 -2 -2 -3 -3 -2 -2 -2 -3 -3 -3 -3 -4 -4 -3 -2 -1 -1 -2 -2 -3 -3 -2 -3 -4 -5 -5 -3 -0 0 2 1 -1 -2 -1 -6 -10 -8 -1 0 -1 -1 1 2 2 1 0 -0 -1 -1 -1 -1 -1 -0 -0 -0 -0 -0 -0 1 2 2 1 1 1 0 -1 -2 -3 -3 -3 -2 -0 2 1 1 1 -0 -2 -3 -3 -2 -1 0 2 3 3 2 1 0
-1 -2 -2 -2 -2 -2 -2 -2 -2 -2 -2 -2 -2 -2 -2 -2 -2 -2 -2 -2 -2 -3 -3 -3 -3 -3 -3 -3 -2 -2 -3 -3 -2 -1 -1 -0 -1 -3 -4 -3 -3 -3 -2 -0 1 0 -2 -7 -6 -5 -8 -7 -1 3 2 -1 -1 -1 0 1 0 -0 -0 -1 -1 -1 -1 -1 -1 -1 -1 0 2 3 2 1 1 1 0 -0 -1 -2 -4 -4 -3 -2 -1 1 2 2 2 1 -0 -1 -1 -1 -0 1 2 3 3 3 2
-1 -1 -2 -2 -2 -2 -2 -2 -2 -2 -2 -2 -2 -2 -2 -2 -2 -2 -2 -2 -2 -2 -3 -3 -3 -3 -3 -3 -3 -3 -5 -4 -2 -1 0 -1 -2 -2 -2 -1 -1 -1 -1 -1 -0 -0 -1 -3 -4 -5 -8 -14 -13 -8 -0 -1 -2 -2 -1 -0 0 0 -0 -1 -1 -2 -2 -1 -1 -1 -2 1 3 4 3 1 0 0 1 1 -0 -1 -2 -3 -4 -4 -3 -2 -0 1 2 2 2 1 -0 -1 -1 -0 0 1 2 2 2
-1 -1 -1 -2 -2 -2 -2 -2 -2 -2 -2 -2 -2 -2 -2 -2 -2 -2 -2 -2 -2 -2 -2 -2 -3 -3 -3 -3 -3 -4 -5 -4 -3 -2 -2 -3 -3 -2 -1 -1 -1 -0 0 0 0 -0 -0 -0 -1 -2 -4 -5 -10 -14 -13 -5 1 3 3 1 -0 -1 -1 -1 -1 -2 -2 -2 -2 -2 -1 0 2 3 3 1 0 0 1 1 1 1 1 -1 -3 -4 -4 -3 -3 -2 -1 -0 0 0 0 -0 -1 -1 -0 0 -0 0 1
-1 -1 -1 -1 -2 -2 -2 -2 -2 -2 -2 -2 -2 -2 -2 -2 -2 -2 -2 -2 -2 -2 -2 -2 -2 -2 -3 -3 -3 -4 -4 -4 -3 -3 -4 -4 -3 -2 -1 -1 -1 -1 -0 -0 -0 -0 -0 -0 -0 -0 -1 -1 -3 -6 -11 -10 -6 -2 2 3 3 2 0 -0 -1 -2 -2 -2 -2 -1 -0 0 1 2 2 1 0 0 1 2 2 3 3 1 -0 -2 -3 -3 -3 -3 -4 -3 -2 -1 1 1 0 -0 0 0 -0 -0 0
Height
1557 1556 1556 1556 1556 1556 1555 1555 1555 1554 1554 1554 1553 1553 1553 1552 1552 1552 1551 1551 1551 1550 1550 1550 1549 1549 1549 1548 1548 1548 1548 1547 1547 1546 1546 1546 1546 1545 1545 1545 1545 1545 1544 1544 1544 1544 1544 1544 1544 1545 1545 1545 1545 1545 1545 1545 1546 1546 1546 1546 1546 1546 1546 1546 1546 1546 1547 1548 1548 1549 1550 1550 1551 1551 1551 1551 1552 1552 1553 1553 1553 1553 1554 1554 1555 1555 1555 1555 1555 1555 1555 1555 1555 1555 1555 1555 1555 1555 1556 1556 1557 1557 1558
1556 1556 1556 1556 1556 1555 1555 1555 1555 1554 1554 1554 1553 1553 1552 1552 1552 1551 1551 1551 1551 1550 1550 1550 1549 1549 1549 1548 1548 1548 1547 1547 1547 1546 1546 1546 1545 1545 1545 1545 1544 1544 1544 1544 1544 1544 1544 1544 1544 1544 1544 1544 1544 1545 1545 1545 1545 1545 1545 1545 1546 1546 1546 1545 1545 1545 1546 1547 1548 1548 1549 1549 1550 1551 1551 1551 1551 1551 1552 1552 1553 1553 1553 1554 1555 1555 1554 1554 1555 1555 1555 1555 1555 1555 1555 1555 1555 1555 1556 1556 1557 1557 1558
1556 1556 1556 1556 1555 1555 1555 1555 1554 1554 1554 1553 1553 1553 1552 1552 1552 1551 1551 1551 1551 1550 1550 1550 1549 1549 1549 1548 1548 1548 1547 1547 1546 1546 1546 1546 1545 1545 1545 1544 1544 1544 1544 1543 1543 1543 1543 1543 1543 1543 1543 1544 1544 1544 1544 1544 1544 1545 1545 1545 1545 1545 1545 1544 1544 1545 1546 1546 1547 1547 1548 1548 1549 1550 1550 1550 1550 1551 1551 1552 1552 1553 1553 1553 1554 1554 1554 1554 1554 1555 1555 1555 1555 1555 1555 1555 1555 1555 1555 1556 1557 1557 1558
1556 1556 1556 1555 1555 1555 1555 1554 1554 1554 1553 1553 1553 1553 1552 1552 1552 1551 1551 1551 1550 1550 1550 1549 1549 1549 1548 1548 1548 1548 1547 1547 1546 1546 1546 1546 1545 1545 1545 1544 1544 1543 1543 1543 1543 1543 1543 1543 1543 1543 1543 1543 1543 1543 1543 1543 1544 1544 1544 1544 1544 1544 1544 1543 1543 1544 1545 1545 1546 1546 1547 1547 1548 1549 1549 1549 1550 1550 1550 1551 1551 1552 1552 1553 1553 1554 1554 1554 1554 1554 1555 1555 1555 1555 1555 1555 1555 1555 1555 1556 1557 1558 1558
1556 1556 1556 1555 1555 1555 1554 1554 1554 1553 1553 1553 1553 1552 1552 1552 1551 1551 1551 1551 1550 1550 1550 1549 1549 1549 1548 1548 1548 1547 1547 1546 1546 1546 1546 1546 1545 1545 1545 1544 1544 1543 1543 1543 1543 1542 1542 1542 1542 1542 1542 1542 1542 1542 1542 1542 1543 1543 1543 1544 1544 1544 1543 1543 1542 1543 1544 1544 1545 1545 1546 1546 1547 1547 1548 1548 1549 1550 1550 1551 1551 1551 1552 1552 1552 1553 1553 1554 1554 1554 1554 1555 1555 1555 1555 1555 1555 1555 1555 1556 1557 1558 1558
1556 1556 1555 1555 1555 1555 1554 1554 1554 1553 1553 1553 1552 1552 1552 1551 1551 1551 1551 1550 1550 1550 1549 1549 1549 1548 1548 1547 1547 1546 1546 1546 1546 1546 1546 1545 1545 1545 1545 1544 1544 1543 1543 1543 1542 1542 1542 1542 1542 1542 1541 1541 1541 1541 1541 1542 1542 1542 1543 1543 1543 1543 1542 1542 1542 1542 1543 1543 1544 1545 1545 1545 1546 1546 1547 1547 1548 1549 1549 1550 1551 1551 1551 1551 1552 1552 1553 1553 1553 1554 1554 1554 1554 1555 1555 1555 1554 1555 1555 1556 1557 1558 1558
1556 1556 1555 1555 1555 1554 1554 1554 1554 1553 1553 1553 1552 1552 1551 1551 1551 1551 1550 1550 1550 1549 1549 1549 1548 1548 1547 1547 1546 1546 1546 1546 1546 1545 1545 1545 1545 1545 1545 1544 1544 1544 1543 1543 1542 1542 1542 1542 1541 1541 1541 1541 1541 1541 1541 1541 1541 1541 1542 1542 1542 1542 1542 1541 1541 1541 1542 1542 1543 1543 1544 1544 1545 1545 1546 1546 1547 1548 1548 1549 1550 1550 1551 1551 1551 1551 1552 1553 1553 1553 1554 1554 1554 1554 1555 1554 1554 1555 1555 1556 1557 1558 1558
1556 1556 1555 1555 1555 1554 1554 1554 1553 1553 1553 1552 1552 1552 1551 1551 1551 1551 1550 1550 1549 1549 1549 1548 1548 1547 1547 1546 1546 1546 1546 1545 1545 1545 1545 1545 1545 1545 1545 1544 1544 1544 1543 1543 1542 1542 1542 1541 1541 1541 1541 1540 1540 1540 1540 1540 1540 1541 1541 1541 1541 1541 1541 1541 1541 1541 1541 1541 1542 1542 1543 1543 1543 1544 1544 1545 1546 1546 1547 1548 1549 1549 1550 1550 1550 1551 1551 1552 1553 1553 1553 1553 1554 1554 1554 1554 1554 1555 1555 1556 1556 1557 1558
1556 1556 1555 1555 1555 1554 1554 1554 1553 1553 1553 1552 1552 1552 1551 1551 1551 1550 1550 1550 1549 1549 1548 1548 1548 1547 1547 1546 1546 1546 1545 1545 1545 1545 1544 1544 1544 1544 1544 1544 1544 1544 1543 1543 1542 1542 1542 1541 1541 1541 1541 1540 1540 1540 1540 1539 1540 1540 1540 1540 1540 1540 1541 1541 1541 1541 1540 1540 1541 1541 1541 1542 1542 1543 1543 1544 1544 1545 1546 1547 1547 1548 1549 1549 1550 1550 1551 1551 1552 1552 1552 1553 1554 1554 1554 1554 1555 1555 1555 1556 1556 1557 1558
1556 1556 1556 1555 1555 1555 1554 1554 1553 1553 1553 1552 1552 1552 1551 1551 1551 1550 1550 1550 1549 1549 1548 1548 1547 1547 1546 1546 1546 1546 1545 1545 1545 1544 1544 1544 1544 1544 1544 1544 1544 1543 1543 1543 1542 1542 1542 1541 1541 1541 1540 1540 1540 1539 1539 1539 1539 1539 1539 1539 1539 1539 1540 1540 1540 1540 1540 1540 1540 1540 1540 1541 1541 1541 1542 1542 1543 1544 1545 1546 1546 1547 1547 1548 1549 1550 1550 1551 1551 1551 1552 1552 1553 1553 1554 1554 1555 1555 1555 1556 1556 1557 1558
1556 1556 1556 1555 1555 1555 1554 1554 1554 1553 1553 1552 1552 1552 1551 1551 1551 1550 1550 1549 1549 1548 1548 1548 1547 1547 1546 1546 1546 1546 1545 1545 1545 1544 1544 1544 1544 1544 1544 1544 1543 1543 1543 1542 1542 1542 1541 1541 1541 1541 1540 1540 1540 1539 1539 1539 1538 1538 1538 1538 1538 1538 1539 1539 1539 1539 1539 1539 1539 1539 1539 1539 1540 1540 1541 1541 1541 1542 1543 1544 1545 1546 1546 1547 1548 1549 1549 1550 1550 1551 1551 1551 1552 1552 1554 1554 1554 1555 1555 1556 1556 1557 1557
1556 1556 1556 1556 1555 1555 1555 1554 1554 1553 1553 1552 1552 1552 1551 1551 1551 1550 1550 1549 1549 1548 1548 1548 1547 1547 1546 1546 1546 1546 1545 1545 1544 1544 1544 1544 1544 1543 1543 1543 1543 1543 1543 1542 1542 1542 1541 1541 1541 1541 1540 1540 1539 1539 1539 1539 1538 1538 1538 1538 1538 1538 1538 1538 1538 1538 1538 1538 1538 1538 1538 1538 1538 1539 1539 1540 1540 1541 1541 1542 1543 1544 1545 1546 1547 1548 1548 1549 1549 1550 1551 1551 1551 1552 1553 1553 1554 1555 1555 1556 1556 1557 1557
1557 1556 1556 1556 1556 1555 1555 1554 1554 1553 1553 1552 1552 1552 1551 1551 1551 1550 1550 1549 1549 1548 1548 1548 1547 1547 1546 1546 1546 1546 1545 1545 1545 1544 1544 1544 1543 1543 1543 1543 1543 1543 1543 1542 1542 1541 1541 1541 1541 1540 1540 1540 1539 1539 1539 1538 1538 1538 1538 1537 1537 1537 1537 1537 1537 1538 1538 1537 1537 1537 1537 1537 1537 1538 1538 1538 1539 1540 1540 1541 1542 1543 1544 1545 1546 1547 1547 1548 1548 1549 1550 1550 1551 1551 1552 1553 1553 1554 1555 1556 1556 1556 1557
1557 1557 1556 1556 1556 1555 1555 1555 1554 1554 1553 1553 1552 1552 1551 1551 1551 1550 1550 1549 1549 1548 1548 1548 1547 1547 1546 1546 1546 1545 1545 1545 1544 1544 1544 1544 1543 1543 1543 1543 1543 1543 1543 1542 1542 1541 1541 1541 1540 1540 1540 1539 1539 1539 1539 1538 1538 1538 1538 1537 1537 1537 1537 1537 1537 1537 1537 1537 1536 1536 1536 1536 1536 1536 1537 1537 1538 1538 1539 1540 1541 1542 1543 1544 1545 1546 1546 1547 1547 1548 1549 1550 1550 1551 1551 1552 1552 1553 1554 1555 1555 1556 1556
1557 1557 1556 1556 1556 1556 1555 1555 1554 1554 1553 1553 1552 1552 1551 1551 1551 1550 1550 1549 1549 1548 1548 1547 1547 1547 1546 1546 1546 1545 1545 1545 1544 1544 1544 1544 1543 1543 1543 1543 1543 1543 1543 1542 1542 1541 1541 1540 1540 1540 1539 1539 1539 1538 1538 1538 1538 1538 1537 1537 1537 1537 1536 1536 1536 1536 1536 1536 1536 1536 1536 1536 1536 1536 1536 1536 1537 1537 1538 1539 1540 1541 1541 1543 1543 1544 1545 1546 1547 1547 1548 1549 1549 1550 1550 1551 1551 1552 1553 1553 1554 1555 1556
1557 1557 1557 1556 1556 1556 1555 1555 1555 1554 1554 1553 1553 1552 1552 1551 1551 1550 1550 1549 1549 1548 1548 1547 1547 1547 1546 1546 1546 1545 1545 1545 1544 1544 1544 1544 1543 1543 1543 1543 1542 1542 1542 1542 1542 1541 1541 1540 1540 1539 1539 1539 1538 1538 1538 1538 1538 1537 1537 1537 1537 1536 1536 1536 1536 1536 1536 1536 1535 1535 1535 1535 1535 1535 1535 1535 1536 1536 1537 1538 1538 1539 1540 1541 1542 1543 1544 1545 1546 1546 1547 1547 1548 1549 1549 1550 1550 1551 1551 1552 1553 1554 1554
1558 1557 1557 1557 1556 1556 1556 1555 1555 1554 1554 1553 1553 1552 1552 1551 1551 1551 1550 1549 1549 1548 1548 1547 1547 1547 1546 1546 1546 1545 1545 1545 1544 1544 1544 1544 1543 1543 1543 1542 1542 1542 1542 1542 1541 1541 1540 1540 1539 1539 1539 1538 1538 1538 1538 1537 1537 1537 1537 1537 1536 1536 1536 1536 1536 1535 1535 1535 1535 1535 1535 1534 1534 1534 1534 1534 1535 1535 1536 1536 1537 1538 1539 1540 1541 1541 1542 1543 1544 1545 1546 1546 1547 1547 1548 1549 1549 1549 1550 1551 1552 1552 1553
1558 1557 1557 1557 1556 1556 1556 1555 1555 1555 1554 1553 1553 1552 1552 1551 1551 1551 1550 1549 1549 1548 1548 1547 1547 1547 1546 1546 1546 1545 1545 1545 1544 1544 1544 1543 1543 1543 1543 1542 1542 1542 1541 1541 1541 1541 1540 1540 1539 1539 1538 1538 1538 1537 1537 1537 1537 1537 1537 1536 1536 1536 1536 1536 1535 1535 1535 1535 1534 1534 1534 1534 1534 1533 1533 1533 1534 1534 1535 1536 1536 1537 1538 1538 1539 1540 1541 1542 1543 1544 1545 1545 1546 1546 1547 1548 1548 1548 1549 1550 1551 1551 1552
1558 1558 1557 1557 1557 1556 1556 1556 1555 1555 1554 1554 1553 1553 1552 1551 1551 1551 1550 1549 1549 1548 1548 1547 1547 1547 1546 1546 1546 1545 1545 1544 1544 1544 1544 1543 1543 1543 1542 1542 1542 1541 1541 1541 1541 1541 1540 1540 1539 1539 1538 1538 1538 1537 1537 1537 1537 1537 1536 1536 1536 1536 1536 1535 1535 1535 1535 1534 1534 1534 1533 1533 1533 1533 1533 1533 1533 1533 1534 1534 1535 1536 1536 1537 1538 1539 1540 1541 1541 1542 1543 1544 1545 1545 1546 1546 1547 1547 1548 1549 1549 1550 1551
1558 1558 1557 1557 1557 1556 1556 1556 1555 1555 1554 1554 1553 1553 1552 1551 1551 1551 1550 1549 1549 1548 1548 1547 1547 1546 1546 1546 1545 1545 1545 1544 1544 1544 1543 1543 1543 1542 1542 1542 1541 1541 1541 1541 1541 1540 1540 1540 1539 1539 1538 1538 1538 1537 1537 1537 1537 1536 1536 1536 1536 1536 1535 1535 1535 1534 1534 1534 1534 1533 1533 1533 1532 1532 1532 1532 1532 1532 1533 1533 1534 1535 1535 1536 1537 1538 1538 1539 1540 1541 1542 1543 1543 1544 1545 1546 1546 1546 1547 1547 1548 1549 1550
1558 1558 1557 1557 1557 1556 1556 1556 1555 1555 1554 1554 1553 1553 1552 1551 1551 1550 1550 1549 1549 1548 1548 1547 1547 1546 1546 1545 1545 1545 1544 1544 1544 1544 1543 1543 1543 1542 1542 1542 1541 1541 1541 1541 1540 1540 1540 1540 1539 1539 1538 1538 1538 1538 1537 1537 1537 1536 1536 1536 1536 1536 1535 1535 1534 1534 1534 1534 1533 1533 1533 1532 1532 1532 1532 1531 1531 1532 1532 1532 1533 1533 1534 1535 1536 1536 1537 1538 1539 1540 1541 1541 1542 1543 1544 1544 1545 1545 1546 1546 1547 1548 1549
1558 1558 1557 1557 1557 1556 1556 1556 1555 1555 1554 1554 1553 1552 1552 1551 1551 1550 1550 1549 1548 1548 1547 1547 1546 1546 1546 1545 1545 1544 1544 1544 1544 1543 1543 1543 1542 1542 1542 1541 1541 1541 1541 1541 1540 1540 1540 1540 1539 1539 1539 1538 1538 1538 1537 1537 1537 1536 1536 1536 1536 1535 1535 1535 1534 1534 1533 1533 1533 1533 1532 1532 1532 1531 1531 1531 1531 1531 1531 1531 1532 1532 1533 1534 1534 1535 1536 1537 1538 1538 1539 1540 1541 1541 1542 1543 1544 1544 1545 1545 1546 1547 1548
1558 1558 1557 1557 1556 1556 1556 1555 1555 1554 1554 1553 1553 1552 1552 1551 1551 1550 1549 1549 1548 1548 1547 1546 1546 1546 1545 1545 1544 1544 1544 1544 1543 1543 1543 1543 1542 1542 1542 1541 1541 1541 1541 1540 1540 1540 1540 1539 1539 1539 1539 1538 1538 1538 1537 1537 1537 1537 1536 1536 1536 1535 1535 1534 1534 1534 1533 1533 1532 1532 1532 1532 1531 1531 1531 1531 1531 1531 1530 1531 1531 1531 1532 1532 1533 1534 1534 1535 1536 1537 1538 1538 1539 1540 1541 1541 1542 1543 1544 1544 1545 1546 1546
1558 1558 1557 1557 1556 1556 1556 1555 1555 1554 1554 1553 1553 1552 1551 1551 1551 1550 1549 1549 1548 1547 1547 1546 1546 1545 1545 1545 1544 1544 1544 1543 1543 1543 1543 1543 1542 1542 1542 1541 1541 1541 1541 1540 1540 1540 1539 1539 1539 1539 1538 1538 1538 1538 1537 1537 1537 1537 1536 1536 1536 1535 1535 1534 1534 1533 1533 1532 1532 1532 1531 1531 1531 1531 1531 1530 1530 1530 1530 1530 1530 1530 1531 1531 1532 1532 1533 1534 1535 1535 1536 1537 1537 1538 1539 1540 1541 1541 1542 1543 1544 1545 1545
1558 1557 1557 1557 1556 1556 1555 1555 1554 1554 1553 1553 1552 1552 1551 1551 1550 1550 1549 1548 1548 1547 1546 1546 1546 1545 1545 1544 1544 1544 1543 1543 1543 1543 1543 1542 1542 1542 1542 1541 1541 1541 1541 1540 1540 1540 1539 1539 1539 1538 1538 1538 1538 1538 1538 1537 1537 1537 1536 1536 1536 1535 1535 1534 1534 1533 1533 1532 1532 1531 1531 1531 1531 1531 1530 1530 1530 1529 1529 1529 1529 1529 1529 1530 1530 1531 1531 1532 1533 1534 1534 1535 1536 1536 1537 1538 1539 1540 1541 1542 1543 1543 1544
1558 1557 1557 1556 1556 1556 1555 1555 1554 1554 1553 1553 1552 1552 1551 1551 1550 1550 1549 1548 1548 1547 1546 1546 1546 1545 1545 1544 1544 1544 1543 1543 1543 1543 1543 1542 1542 1542 1542 1541 1541 1541 1541 1540 1540 1540 1539 1539 1539 1538 1538 1538 1538 1538 1537 1537 1537 1536 1536 1536 1536 1535 1535 1534 1534 1533 1533 1532 1532 1531 1531 1531 1530 1530 1530 1529 1529 1529 1529 1528 1528 1528 1528 1529 1529 1530 1530 1531 1531 1532 1533 1534 1534 1535 1536 1537 1538 1539 1540 1541 1541 1542 1543
1558 1557 1557 1556 1556 1556 1555 1555 1554 1554 1553 1553 1552 1552 1551 1551 1550 1549 1549 1548 1548 1547 1546 1546 1546 1545 1545 1545 1544 1544 1543 1543 1543 1543 1543 1542 1542 1542 1542 1541 1541 1541 1541 1540 1540 1540 1539 1539 1539 1538 1538 1538 1538 1537 1537 1537 1536 1536 1536 1536 1536 1535 1535 1534 1534 1533 1533 1532 1532 1531 1531 1530 1530 1529 1529 1529 1529 1528 1528 1528 1528 1528 1528 1528 1528 1528 1529 1529 1530 1531 1531 1532 1533 1534 1535 1536 1537 1538 1539 1539 1540 1541 1541
1558 1558 1557 1557 1556 1556 1555 1555 1554 1554 1553 1553 1552 1552 1551 1551 1550 1549 1549 1548 1547 1547 1546 1546 1546 1545 1545 1544 1544 1544 1543 1543 1543 1543 1543 1542 1542 1542 1542 1541 1541 1541 1541 1541 1540 1540 1540 1539 1539 1539 1538 1538 1538 1537 1537 1536 1536 1536 1536 1535 1535 1535 1535 1534 1534 1533 1533 1532 1532 1531 1531 1530 1530 1529 1529 1528 1528 1528 1528 1527 1527 1527 1527 1527 1527 1527 1528 1528 1529 1529 1530 1531 1531 1532 1533 1534 1536 1536 1537 1538 1538 1539 1540
1558 1558 1557 1557 1556 1556 1556 1555 1554 1554 1553 1553 1552 1552 1551 1551 1550 1549 1549 1548 1547 1547 1546 1546 1545 1545 1545 1544 1544 1544 1543 1543 1543 1543 1542 1542 1542 1542 1542 1541 1541 1541 1541 1541 1540 1540 1540 1539 1539 1539 1538 1538 1538 1537 1537 1536 1536 1536 1535 1535 1535 1534 1534 1534 1533 1533 1532 1532 1531 1531 1531 1530 1529 1529 1528 1528 1527 1527 1527 1527 1527 1526 1526 1526 1526 1526 1527 1527 1527 1528 1528 1529 1530 1531 1532 1533 1534 1535 1536 1536 1537 1538 1538
1558 1558 1557 1557 1556 1556 1556 1555 1555 1554 1553 1553 1552 1552 1551 1551 1550 1549 1548 1548 1547 1547 1546 1546 1545 1545 1545 1544 1544 1544 1543 1543 1543 1543 1543 1542 1542 1542 1542 1541 1541 1541 1541 1540 1540 1540 1540 1540 1539 1539 1538 1538 1538 1537 1537 1536 1536 1536 1536 1535 1535 1534 1534 1533 1533 1533 1532 1532 1531 1531 1530 1530 1529 1528 1528 1527 1527 1526 1526 1526 1526 1526 1526 1526 1526 1526 1526 1526 1526 1526 1527 1527 1528 1529 1530 1531 1532 1533 1534 1535 1536 1536 1537
1558 1558 1558 1557 1557 1556 1556 1555 1555 1554 1554 1553 1552 1552 1551 1551 1550 1549 1548 1548 1547 1547 1546 1546 1545 1545 1544 1544 1544 1543 1543 1543 1543 1543 1543 1542 1542 1542 1542 1541 1541 1541 1541 1540 1540 1540 1540 1540 1539 1539 1539 1538 1538 1537 1537 1537 1536 1536 1536 1536 1535 1534 1534 1533 1533 1532 1531 1531 1531 1530 1530 1529 1528 1528 1527 1527 1526 1526 1526 1525 1525 1525 1525 1525 1525 1525 1525 1525 1525 1525 1526 1526 1526 1527 1528 1529 1530 1531 1532 1534 1534 1535 1535
1559 1558 1558 1557 1557 1556 1556 1556 1555 1554 1554 1553 1553 1552 1551 1551 1550 1549 1548 1548 1547 1546 1546 1545 1545 1545 1544 1544 1544 1543 1543 1543 1543 1543 1543 1542 1542 1542 1542 1542 1541 1541 1541 1541 1540 1540 1540 1540 1540 1539 1539 1539 1538 1538 1538 1537 1537 1537 1536 1536 1536 1535 1534 1533 1532 1532 1531 1531 1530 1530 1529 1529 1528 1527 1527 1527 1526 1525 1525 1525 1524 1524 1524 1524 1524 1524 1524 1524 1524 1524 1525 1525 1525 1526 1527 1527 1528 1529 1531 1532 1533 1533 1534
1559 1558 1558 1558 1557 1556 1556 1556 1555 1555 1554 1554 1553 1552 1551 1551 1550 1549 1548 1548 1547 1547 1546 1545 1545 1544 1544 1544 1543 1543 1543 1543 1543 1543 1543 1542 1542 1542 1542 1542 1541 1541 1541 1541 1541 1540 1540 1540 1540 1540 1539 1539 1539 1538 1538 1538 1537 1537 1537 1536 1536 1535 1534 1533 1532 1532 1531 1531 1530 1529 1529 1528 1527 1527 1526 1526 1526 1525 1525 1524 1523 1523 1523 1523 1523 1523 1523 1523 1523 1523 1523 1524 1524 1525 1525 1526 1526 1527 1529 1530 1531 1532 1532
1559 1559 1558 1558 1557 1557 1556 1556 1556 1555 1555 1554 1553 1552 1552 1551 1551 1550 1549 1548 1548 1547 1546 1546 1545 1545 1544 1544 1543 1543 1543 1543 1543 1543 1542 1542 1542 1542 1542 1542 1541 1541 1541 1541 1541 1540 1540 1540 1540 1540 1540 1539 1539 1538 1538 1538 1537 1537 1536 1536 1536 1535 1534 1533 1532 1532 1531 1530 1530 1529 1528 1528 1527 1526 1526 1526 1525 1525 1524 1524 1523 1523 1522 1522 1522 1522 1522 1522 1522 1522 1522 1523 1523 1523 1524 1524 1525 1526 1527 1528 1529 1530 1531
1559 1559 1558 1558 1558 1557 1557 1556 1556 1556 1555 1554 1553 1553 1552 1552 1551 1550 1550 1549 1548 1547 1546 1546 1545 1545 1544 1544 1544 1543 1543 1543 1543 1543 1542 1542 1542 1542 1542 1542 1542 1541 1541 1541 1541 1541 1541 1541 1541 1540 1540 1540 1539 1539 1538 1538 1537 1537 1536 1536 1535 1535 1534 1533 1532 1531 1531 1530 1529 1529 1528 1527 1527 1526 1526 1525 1525 1524 1524 1523 1523 1522 1522 1522 1521 1521 1521 1521 1521 1521 1521 1522 1522 1522 1523 1523 1523 1524 1525 1526 1527 1528 1529
1559 1559 1559 1558 1558 1558 1557 1557 1556 1556 1555 1555 1554 1553 1553 1552 1551 1551 1550 1550 1549 1548 1547 1546 1546 1545 1544 1544 1544 1543 1543 1543 1543 1543 1542 1542 1542 1542 1542 1542 1542 1542 1541 1541 1541 1541 1541 1541 1541 1541 1540 1540 1539 1539 1538 1538 1537 1537 1536 1536 1535 1534 1533 1532 1532 1531 1530 1530 1529 1528 1527 1527 1526 1526 1525 1525 1524 1524 1523 1523 1523 1522 1522 1521 1521 1521 1521 1521 1521 1521 1521 1521 1521 1521 1521 1522 1522 1523 1523 1524 1525 1526 1527
1560 1559 1559 1559 1558 1558 1557 1557 1557 1556 1556 1555 1554 1554 1553 1553 1552 1551 1551 1550 1549 1548 1547 1547 1546 1545 1545 1544 1544 1543 1543 1543 1543 1543 1543 1543 1543 1542 1542 1542 1542 1542 1542 1542 1541 1541 1541 1541 1541 1541 1540 1540 1539 1539 1538 1538 1537 1537 1536 1536 1535 1534 1533 1532 1531 1531 1530 1529 1528 1528 1527 1526 1526 1525 1525 1525 1524 1524 1523 1523 1522 1522 1521 1521 1521 1521 1521 1520 1520 1520 1520 1520 1520 1520 1521 1521 1521 1521 1522 1522 1523 1524 1526
1560 1560 1559 1559 1559 1558 1558 1558 1557 1557 1556 1555 1555 1554 1554 1553 1553 1552 1551 1551 1550 1549 1548 1547 1546 1546 1545 1544 1544 1544 1543 1543 1543 1543 1543 1543 1543 1543 1543 1543 1542 1542 1542 1542 1542 1542 1542 1542 1541 1541 1541 1540 1540 1539 1539 1538 1538 1537 1536 1536 1535 1534 1533 1532 1531 1530 1529 1528 1528 1527 1526 1526 1525 1525 1525 1525 1524 1524 1523 1522 1522 1521 1521 1521 1521 1521 1520 1520 1520 1520 1520 1520 1520 1520 1520 1520 1520 1521 1521 1521 1522 1523 1524
1560 1560 1560 1559 1559 1559 1558 1558 1558 1557 1556 1556 1555 1555 1554 1554 1553 1553 1552 1551 1550 1549 1548 1548 1547 1546 1545 1545 1544 1544 1544 1543 1543 1543 1543 1543 1543 1543 1543 1543 1543 1542 1542 1543 1543 1543 1542 1542 1542 1541 1541 1541 1540 1540 1540 1539 1538 1538 1537 1536 1535 1534 1533 1532 1531 1530 1529 1528 1527 1526 1526 1526 1525 1525 1524 1524 1524 1523 1523 1522 1522 1521 1521 1521 1521 1520 1520 1520 1519 1519 1519 1519 1519 1519 1519 1519 1519 1519 1520 1520 1521 1521 1522
1560 1560 1560 1560 1559 1559 1559 1558 1558 1557 1557 1556 1556 1555 1555 1555 1554 1553 1552 1552 1551 1550 1549 1548 1547 1546 1546 1545 1545 1545 1544 1544 1544 1543 1543 1543 1543 1543 1543 1543 1543 1543 1543 1544 1544 1543 1543 1542 1542 1541 1541 1541 1541 1541 1540 1540 1539 1538 1537 1536 1535 1534 1533 1532 1531 1530 1529 1528 1527 1526 1526 1525 1525 1525 1524 1524 1523 1523 1523 1522 1522 1521 1521 1521 1520 1520 1520 1520 1519 1519 1519 1518 1518 1518 1518 1518 1518 1518 1518 1519 1519 1520 1521
1561 1561 1560 1560 1560 1559 1559 1559 1558 1558 1557 1557 1556 1556 1556 1555 1554 1554 1553 1552 1552 1551 1550 1549 1548 1547 1546 1546 1546 1545 1545 1544 1544 1544 1544 1544 1544 1544 1544 1543 1543 1544 1544 1545 1545 1544 1544 1543 1542 1541 1541 1541 1541 1541 1541 1540 1539 1538 1537 1536 1535 1534 1533 1532 1531 1530 1529 1528 1527 1526 1526 1525 1525 1524 1524 1523 1523 1523 1522 1522 1522 1521 1521 1520 1520 1519 1519 1519 1519 1519 1518 1518 1518 1517 1517 1517 1517 1517 1517 1517 1518 1518 1519
1561 1561 1561 1560 1560 1560 1560 1559 1559 1558 1558 1557 1557 1556 1556 1556 1555 1554 1554 1553 1552 1552 1551 1550 1549 1548 1548 1547 1547 1546 1546 1545 1545 1544 1544 1544 1544 1544 1544 1544 1544 1545 1545 1545 1545 1545 1544 1543 1542 1542 1541 1542 1542 1542 1541 1541 1540 1539 1538 1537 1536 1535 1533 1532 1531 1530 1529 1528 1527 1526 1525 1525 1524 1524 1524 1523 1523 1522 1522 1522 1521 1521 1521 1520 1519 1519 1519 1518 1518 1518 1518 1518 1517 1517 1516 1516 1516 1516 1516 1516 1516 1517 1517
1561 1561 1561 1560 1560 1560 1560 1560 1559 1559 1558 1558 1557 1557 1556 1556 1556 1555 1555 1554 1553 1552 1552 1551 1550 1549 1549 1548 1548 1547 1546 1546 1545 1545 1545 1545 1544 1544 1545 1545 1545 1545 1546 1546 1546 1545 1544 1544 1543 1542 1542 1542 1542 1542 1541 1541 1540 1539 1538 1537 1536 1535 1534 1533 1531 1531 1529 1528 1527 1526 1525 1525 1524 1524 1523 1523 1523 1522 1522 1522 1521 1521 1521 1520 1519 1519 1518 1518 1518 1518 1518 1517 1517 1516 1516 1516 1515 1515 1515 1515 1515 1515 1516
1561 1561 1561 1561 1561 1560 1560 1560 1560 1559 1559 1558 1558 1558 1557 1556 1556 1556 1555 1555 1554 1553 1552 1551 1551 1550 1550 1549 1549 1548 1547 1547 1546 1546 1545 1545 1545 1545 1545 1545 1546 1546 1546 1546 1546 1546 1545 1544 1543 1543 1542 1542 1542 1542 1541 1541 1540 1539 1538 1537 1536 1535 1534 1533 1532 1531 1530 1528 1527 1526 1525 1525 1524 1524 1523 1523 1522 1522 1522 1521 1521 1521 1521 1520 1519 1519 1518 1518 1518 1518 1517 1517 1516 1516 1516 1515 1514 1514 1514 1514 1514 1514 1514
1561 1561 1561 1561 1561 1561 1560 1560 1560 1560 1559 1559 1558 1558 1558 1557 1557 1556 1556 1555 1555 1554 1553 1552 1552 1551 1551 1550 1550 1549 1549 1548 1547 1547 1546 1546 1546 1546 1546 1546 1547 1547 1547 1547 1547 1546 1545 1545 1544 1543 1542 1542 1542 1542 1542 1541 1541 1540 1539 1538 1536 1536 1535 1534 1533 1531 1530 1529 1527 1526 1526 1525 1524 1523 1523 1523 1522 1522 1521 1521 1521 1521 1520 1520 1519 1519 1519 1518 1518 1518 1517 1517 1516 1516 1515 1514 1514 1513 1513 1512 1512 1512 1513
1561 1561 1561 1561 1561 1561 1561 1561 1560 1560 1560 1559 1559 1559 1558 1558 1557 1557 1556 1556 1555 1555 1554 1553 1552 1552 1552 1551 1551 1551 1550 1549 1548 1548 1547 1546 1546 1546 1546 1547 1547 1548 1548 1547 1547 1547 1546 1545 1544 1543 1543 1543 1542 1542 1542 1541 1541 1540 1539 1538 1537 1536 1535 1534 1533 1532 1531 1529 1528 1527 1526 1525 1524 1524 1523 1523 1522 1522 1521 1521 1521 1521 1520 1520 1520 1519 1519 1518 1518 1517 1517 1516 1516 1515 1515 1514 1513 1513 1512 1512 1511 1511 1511
1561 1561 1561 1561 1561 1561 1561 1561 1561 1560 1560 1560 1559 1559 1558 1558 1557 1557 1556 1556 1556 1555 1554 1554 1553 1553 1553 1552 1552 1551 1551 1550 1550 1549 1548 1547 1547 1546 1547 1547 1548 1548 1548 1548 1548 1547 1546 1545 1544 1543 1543 1543 1543 1542 1542 1542 1541 1540 1539 1538 1537 1536 1535 1535 1534 1533 1531 1530 1529 1527 1526 1525 1524 1524 1523 1523 1522 1522 1522 1521 1521 1520 1520 1520 1519 1519 1519 1518 1518 1517 1516 1516 1515 1515 1514 1513 1513 1512 1511 1511 1511 1510 1510
1561 1561 1561 1561 1561 1561 1561 1561 1561 1561 1560 1560 1560 1559 1558 1558 1558 1557 1557 1556 1556 1555 1555 1554 1554 1553 1553 1553 1552 1552 1551 1551 1550 1550 1549 1549 1548 1547 1547 1547 1548 1548 1548 1548 1548 1548 1546 1545 1544 1544 1544 1543 1543 1543 1542 1542 1541 1540 1539 1538 1537 1536 1536 1535 1534 1533 1532 1531 1530 1528 1527 1526 1525 1524 1523 1523 1523 1522 1522 1522 1521 1520 1520 1519 1519 1519 1519 1518 1518 1517 1516 1516 1515 1515 1514 1513 1512 1512 1511 1510 1510 1509 1509
1561 1561 1561 1561 1561 1561 1561 1561 1561 1561 1561 1560 1560 1559 1559 1558 1558 1558 1557 1557 1556 1556 1556 1555 1554 1554 1553 1553 1552 1552 1551 1551 1551 1551 1551 1549 1548 1548 1548 1548 1548 1548 1548 1548 1548 1548 1547 1546 1545 1544 1544 1544 1543 1543 1543 1542 1541 1541 1540 1539 1538 1536 1536 1535 1535 1534 1533 1531 1531 1529 1528 1526 1526 1524 1524 1523 1523 1523 1522 1522 1522 1521 1520 1520 1520 1519 1519 1519 1518 1518 1517 1516 1515 1515 1514 1513 1512 1511 1511 1510 1509 1509 1508
1561 1561 1561 1561 1561 1561 1561 1561 1561 1561 1561 1560 1560 1560 1559 1559 1559 1558 1558 1557 1557 1556 1556 1555 1555 1554 1553 1553 1552 1552 1552 1551 1551 1551 1550 1549 1548 1548 1548 1548 1548 1548 1548 1548 1548 1548 1547 1546 1545 1544 1544 1544 1544 1543 1543 1542 1542 1541 1540 1539 1538 1537 1536 1536 1535 1534 1533 1532 1531 1530 1529 1527 1526 1525 1524 1524 1523 1523 1522 1522 1522 1521 1521 1520 1520 1520 1520 1519 1519 1518 1517 1516 1515 1515 1514 1513 1512 1511 1511 1510 1509 1508 1507
1561 1561 1561 1561 1561 1561 1561 1561 1561 1561 1561 1561 1560 1560 1560 1559 1559 1559 1558 1558 1557 1557 1556 1556 1555 1554 1554 1553 1553 1553 1552 1552 1551 1550 1549 1548 1549 1549 1549 1548 1548 1548 1548 1548 1548 1548 1547 1546 1545 1545 1545 1544 1544 1543 1543 1543 1542 1541 1540 1539 1538 1537 1537 1536 1536 1535 1534 1532 1531 1531 1530 1529 1527 1526 1525 1524 1524 1523 1523 1522 1522 1522 1521 1520 1519 1519 1519 1518 1517 1516 1516 1515 1514 1514 1513 1512 1511 1511 1510 1509 1508 1507 1506
1561 1561 1561 1561 1561 1561 1561 1561 1561 1561 1561 1561 1561 1560 1560 1560 1559 1559 1559 1558 1558 1557 1557 1556 1556 1555 1555 1554 1554 1553 1553 1552 1551 1550 1550 1550 1550 1550 1549 1548 1547 1546 1546 1547 1547 1547 1546 1546 1545 1545 1545 1544 1544 1544 1543 1543 1542 1542 1541 1540 1539 1538 1537 1537 1536 1536 1534 1533 1532 1531 1530 1530 1528 1527 1526 1525 1525 1524 1523 1523 1522 1521 1521 1520 1519 1518 1517 1516 1516 1515 1514 1514 1513 1512 1511 1510 1510 1509 1509 1508 1507 1506 1505
1561 1561 1561 1561 1561 1561 1561 1561 1561 1561 1561 1561 1561 1560 1560 1560 1560 1559 1559 1558 1558 1558 1557 1557 1556 1556 1556 1555 1554 1554 1553 1553 1552 1551 1551 1551 1550 1549 1548 1547 1548 1548 1548 1547 1545 1545 1544 1545 1545 1545 1545 1545 1544 1544 1544 1543 1542 1542 1541 1541 1539 1538 1538 1537 1537 1536 1535 1533 1532 1531 1531 1530 1529 1528 1527 1526 1525 1524 1523 1523 1522 1521 1521 1520 1519 1518 1517 1516 1515 1514 1513 1513 1512 1511 1511 1510 1509 1508 1507 1507 1506 1506 1505
1561 1561 1561 1561 1561 1561 1561 1561 1561 1561 1561 1561 1561 1561 1560 1560 1560 1559 1559 1559 1558 1558 1557 1557 1557 1556 1556 1555 1555 1554 1554 1553 1553 1552 1551 1551 1550 1549 1548 1548 1549 1550 1549 1548 1546 1545 1545 1544 1545 1545 1545 1545 1545 1544 1544 1543 1543 1542 1541 1541 1540 1539 1538 1537 1537 1536 1535 1534 1533 1532 1531 1531 1530 1529 1528 1526 1526 1525 1524 1523 1522 1521 1521 1520 1519 1518 1517 1516 1515 1514 1513 1513 1512 1511 1511 1510 1509 1508 1507 1506 1506 1505 1504
1561 1561 1561 1561 1561 1561 1561 1561 1561 1561 1561 1561 1561 1561 1560 1560 1560 1560 1559 1559 1559 1558 1558 1557 1557 1557 1556 1556 1556 1555 1555 1554 1554 1553 1552 1551 1551 1550 1550 1550 1549 1549 1549 1548 1548 1549 1548 1546 1546 1546 1546 1545 1544 1544 1544 1543 1543 1542 1542 1541 1540 1539 1538 1537 1537 1536 1536 1535 1534 1533 1532 1531 1531 1530 1528 1527 1526 1525 1524 1523 1522 1521 1521 1520 1519 1518 1517 1516 1515 1514 1513 1512 1512 1511 1510 1510 1509 1508 1507 1506 1505 1504 1503
1560 1561 1561 1561 1561 1561 1561 1561 1561 1561 1561 1561 1561 1561 1560 1560 1560 1560 1560 1559 1559 1559 1558 1558 1557 1557 1557 1556 1556 1556 1556 1555 1555 1554 1553 1553 1552 1551 1551 1551 1550 1549 1549 1549 1550 1551 1550 1548 1546 1545 1545 1545 1544 1544 1544 1543 1543 1542 1542 1541 1540 1539 1538 1538 1537 1537 1536 1535 1534 1533 1533 1532 1531 1530 1529 1527 1526 1525 1525 1524 1523 1522 1521 1520 1520 1518 1517 1516 1515 1514 1513 1512 1511 1511 1510 1509 1509 1508 1507 1506 1505 1504 1503
1560 1560 1560 1560 1561 1561 1561 1561 1561 1561 1561 1561 1561 1561 1560 1560 1560 1560 1560 1560 1559 1559 1558 1558 1558 1557 1557 1557 1557 1557 1556 1556 1555 1555 1554 1554 1553 1553 1552 1552 1552 1552 1553 1553 1552 1551 1550 1549 1547 1545 1545 1545 1545 1545 1544 1544 1543 1543 1542 1541 1540 1540 1539 1538 1537 1537 1536 1536 1535 1534 1533 1532 1532 1531 1529 1528 1526 1526 1525 1524 1523 1522 1521 1521 1520 1519 1517 1516 1515 1514 1513 1512 1511 1511 1510 1509 1509 1508 1507 1506 1505 1504 1503
1559 1560 1560 1560 1560 1560 1560 1561 1561 1561 1561 1561 1561 1560 1560 1560 1560 1560 1560 1560 1560 1559 1559 1559 1558 1558 1558 1558 1558 1557 1557 1556 1556 1556 1556 1555 1555 1554 1553 1553 1553 1553 1553 1553 1553 1552 1551 1549 1548 1547 1545 1544 1544 1545 1544 1544 1543 1542 1542 1541 1541 1540 1539 1538 1537 1537 1536 1536 1535 1534 1533 1533 1532 1531 1530 1528 1527 1526 1525 1524 1523 1523 1522 1521 1520 1519 1518 1516 1515 1514 1513 1513 1512 1511 1510 1509 1508 1508 1507 1506 1505 1504 1503
1559 1559 1559 1560 1560 1560 1560 1560 1560 1560 1560 1560 1560 1560 1560 1560 1560 1560 1560 1560 1560 1559 1559 1559 1559 1558 1558 1558 1558 1557 1557 1556 1556 1556 1556 1556 1555 1555 1554 1554 1554 1554 1554 1553 1553 1552 1552 1551 1549 1548 1546 1544 1543 1543 1543 1543 1543 1542 1542 1541 1541 1540 1539 1538 1537 1537 1536 1536 1535 1534 1534 1533 1533 1532 1531 1529 1528 1526 1526 1525 1524 1522 1521 1521 1520 1519 1518 1517 1516 1515 1514 1513 1512 1511 1510 1509 1508 1507 1506 1506 1505 1504 1503
1558 1559 1559 1559 1559 1560 1560 1560 1560 1560 1560 1560 1560 1560 1560 1560 1560 1560 1560 1560 1560 1560 1559 1559 1559 1559 1558 1558 1558 1557 1557 1557 1557 1556 1556 1556 1555 1555 1555 1555 1555 1554 1554 1554 1553 1553 1552 1551 1551 1550 1549 1547 1545 1543 1541 1542 1543 1543 1542 1541 1541 1540 1539 1538 1537 1537 1536 1536 1535 1535 1534 1534 1533 1532 1531 1530 1528 1527 1526 1525 1524 1523 1521 1520 1520 1519 1518 1517 1516 1515 1514 1513 1512 1511 1510 1509 1508 1507 1506 1506 1505 1504 1503
1558 1558 1559 1559 1559 1559 1559 1559 1560 1560 1560 1560 1560 1560 1560 1560 1560 1560 1560 1560 1560 1560 1559 1559 1559 1559 1559 1558 1558 1558 1557 1557 1557 1556 1556 1556 1556 1555 1555 1555 1555 1554 1554 1554 1553 1553 1552 1551 1551 1550 1549 1549 1547 1546 1543 1541 1541 1541 1542 1541 1541 1540 1540 1538 1538 1537 1536 1536 1535 1535 1535 1534 1533 1533 1531 1530 1529 1528 1526 1525 1524 1523 1521 1520 1519 1519 1518 1517 1516 1516 1514 1513 1512 1511 1510 1509 1508 1507 1506 1505 1505 1504 1503